Clarksville, TN

1:02 PM CDT on June 25, 2017 (GMT -0500)
Outlaw

Weather History for KCKV - May, 2013

Change the Weather History Date:

Thursday, May 23, 2013

  Actual Average Record
Temperature  
Mean Temperature 68 °F 68 °F  
Max Temperature 74 °F 80 °F 92 °F (1970)
Min Temperature 61 °F 57 °F 39 °F (1963)
Degree Days  
Heating Degree Days 0    
Month to date heating degree days 71  
Since 1 July heating degree days 3945  
Cooling Degree Days 3    
Month to date cooling degree days 82  
Year to date cooling degree days  
Growing Degree Days 15 (Base 50)    
Moisture  
Dew Point 56 °F    
Average Humidity 73    
Maximum Humidity 97    
Minimum Humidity 49    
Precipitation  
Precipitation 0.00 in 0.15 in 1.49 in (1980)
Month to date precipitation 2.63 4.53  
Year to date precipitation 20.55  
Sea Level Pressure  
Sea Level Pressure 30.01 in    
Wind  
Wind Speed 10 mph (NW)    
Max Wind Speed 22 mph    
Max Gust Speed 26 mph    
Visibility 10 miles    
Events Rain    
T = Trace of Precipitation, MM = Missing Value Source: NWS Daily Summary

Daily Weather History Graph

Daily Weather History Graph

Search for Another Location

Airport or City:

Trip Planner

Search our weather history database for the weather conditions in past years. The results will help you decide how hot, cold, wet, or windy it might be!

Date:

Astronomy

May. 23, 2013 Rise Set
Actual Time 5:36 AM CDT 7:56 PM CDT
Civil Twilight 5:07 AM CDT 8:26 PM CDT
Nautical Twilight 4:31 AM CDT 9:02 PM CDT
Astronomical Twilight 3:51 AM CDT 9:42 PM CDT
Moon 6:30 PM CDT (5/23) 4:18 AM CDT (5/23)
Length of Visible Light 15h 18m
Length of Day
14h 19m
Waxing Gibbous, 97% of the Moon is Illuminated
May 23
Waxing Gibbous
May 24
Full
May 31
Last Quarter
Jun 8
New
Jun 16
First Quarter

Hourly Weather History & Observations

Time (CDT) Temp. Dew Point Humidity Pressure Visibility Wind Dir Wind Speed Gust Speed Precip Events Conditions
12:52 AM 64.9 °F 62.1 °F 90% 29.87 in 10.0 mi SW 4.6 mph - N/A   Clear
1:52 AM 66.0 °F 61.0 °F 84% 29.87 in 10.0 mi SSW 5.8 mph - N/A   Clear
2:52 AM 66.0 °F 61.0 °F 84% 29.88 in 10.0 mi WSW 4.6 mph - N/A   Partly Cloudy
3:52 AM 63.0 °F 60.1 °F 90% 29.90 in 10.0 mi WNW 4.6 mph - N/A   Clear
4:52 AM 62.1 °F 59.0 °F 90% 29.91 in 10.0 mi WNW 4.6 mph - N/A   Clear
5:52 AM 61.0 °F 59.0 °F 93% 29.93 in 10.0 mi WSW 3.5 mph - N/A   Clear
6:52 AM 64.0 °F 60.1 °F 87% 29.96 in 10.0 mi WNW 5.8 mph - N/A   Clear
7:52 AM 66.0 °F 57.9 °F 75% 29.97 in 10.0 mi WNW 9.2 mph - N/A   Clear
8:52 AM 69.1 °F 55.0 °F 61% 29.98 in 10.0 mi WNW 11.5 mph - N/A   Clear
9:52 AM 71.1 °F 53.1 °F 53% 29.98 in 10.0 mi WNW 5.8 mph - N/A   Clear
10:52 AM 73.0 °F 55.0 °F 53% 29.97 in 10.0 mi West 8.1 mph - N/A   Clear
11:52 AM 73.0 °F 54.0 °F 51% 29.98 in 10.0 mi WNW 10.4 mph - N/A   Overcast
12:52 PM 71.1 °F 54.0 °F 55% 29.99 in 10.0 mi West 13.8 mph - N/A   Overcast
1:52 PM 70.0 °F 55.9 °F 61% 30.00 in 10.0 mi WNW 10.4 mph - N/A   Overcast
2:52 PM 73.0 °F 55.0 °F 53% 29.99 in 10.0 mi NW 16.1 mph 23.0 mph N/A   Mostly Cloudy
3:52 PM 73.0 °F 55.0 °F 53% 30.00 in 10.0 mi NW 20.7 mph 25.3 mph N/A   Scattered Clouds
4:52 PM 72.0 °F 55.0 °F 55% 30.01 in 10.0 mi NW 11.5 mph - N/A   Mostly Cloudy
5:52 PM 71.1 °F 54.0 °F 55% 30.02 in 10.0 mi NW 15.0 mph 21.9 mph N/A   Scattered Clouds
6:52 PM 69.1 °F 54.0 °F 58% 30.03 in 10.0 mi NNW 16.1 mph - N/A   Partly Cloudy
7:52 PM 66.0 °F 55.0 °F 68% 30.06 in 10.0 mi NW 11.5 mph - N/A   Partly Cloudy
8:52 PM 66.0 °F 55.0 °F 68% 30.06 in 10.0 mi NW 11.5 mph - N/A   Overcast
9:52 PM 64.9 °F 55.9 °F 73% 30.08 in 10.0 mi NW 8.1 mph - N/A   Overcast
10:15 PM 64.4 °F 55.4 °F 73% 30.09 in 10.0 mi NNW 15.0 mph 20.7 mph N/A   Overcast
10:52 PM 61.0 °F 57.9 °F 90% 30.10 in 10.0 mi North 12.7 mph - 0.00 in   Overcast
10:59 PM 60.8 °F 57.2 °F 88% 30.11 in 8.0 mi North 16.1 mph 24.2 mph 0.00 in Rain Light Rain
11:10 PM 59.0 °F 55.4 °F 88% 30.12 in 8.0 mi NNW 13.8 mph - 0.00 in   Overcast
11:20 PM 59.0 °F 55.4 °F 88% 30.13 in 10.0 mi NNW 16.1 mph 24.2 mph 0.00 in   Overcast
11:27 PM 59.0 °F 53.6 °F 82% 30.13 in 10.0 mi NNW 15.0 mph - 0.00 in   Overcast
11:40 PM 57.2 °F 53.6 °F 88% 30.13 in 10.0 mi NNW 16.1 mph - 0.00 in   Overcast
11:52 PM 57.9 °F 53.1 °F 84% 30.13 in 10.0 mi North 13.8 mph - 0.00 in   Overcast